Temperature
19 19 19 19 18 18 18 18 18 18 18 19 19 19 19 19 19 19 19 19 18 18 18 18 18 18 18 18 18 18 18 17 17 17 17 17 17 17 17 17 17 16 16
19 19 19 19 19 19 18 18 19 19 19 19 19 19 19 19 19 19 19 18 18 18 18 18 18 18 18 18 18 18 18 18 17 17 17 17 17 17 17 17 17 17 16
19 19 19 19 19 19 19 19 19 19 19 19 19 19 19 19 19 19 19 19 18 18 18 18 18 18 18 18 18 18 18 18 18 17 17 17 17 17 17 17 17 17 16
19 19 19 19 19 19 19 19 19 19 19 19 19 19 19 19 19 19 19 19 19 18 18 18 18 18 18 18 18 18 18 18 17 17 17 17 17 17 17 17 17 17 16
19 19 19 19 19 19 19 19 19 19 19 19 19 19 19 19 19 19 19 19 19 19 18 18 18 18 18 18 18 18 18 17 17 17 17 17 17 17 17 17 17 17 17
19 19 19 19 19 19 19 19 19 19 19 19 19 19 19 19 19 19 19 19 19 19 18 18 18 18 18 18 18 18 18 18 17 17 17 17 17 17 17 17 17 16 16
19 19 19 19 19 19 19 19 19 19 19 19 19 19 19 19 19 19 19 19 19 19 18 18 18 18 18 18 18 18 18 18 17 17 17 17 17 17 17 17 16 16 16
19 19 19 19 19 19 19 19 19 19 19 19 19 19 19 19 19 19 19 19 19 19 19 19 18 18 18 18 18 18 17 17 17 17 17 17 17 17 17 17 16 16 16
19 19 19 19 19 19 19 19 19 19 19 19 19 18 18 18 19 19 19 19 19 19 19 19 18 18 18 18 18 18 18 18 17 17 17 17 17 17 17 17 16 16 16
19 19 19 19 19 19 19 19 19 18 18 18 18 18 18 18 18 18 19 19 19 19 19 18 18 18 18 18 18 18 18 18 18 17 17 17 17 17 17 17 16 16 16
19 19 19 19 19 19 19 19 19 18 18 18 18 18 18 18 18 18 18 19 19 19 18 18 18 18 18 18 18 18 18 18 18 17 17 17 17 17 17 16 16 16 16
19 19 19 19 19 19 19 19 18 18 18 18 18 18 18 18 18 18 18 18 18 18 18 18 18 18 18 18 18 18 18 18 17 17 17 17 17 17 17 16 16 16 16
19 19 19 19 19 19 19 19 18 18 18 18 18 18 18 18 18 18 18 18 18 18 18 18 18 18 18 18 18 18 18 17 17 17 17 17 17 17 16 16 16 16 16
19 19 19 19 19 19 18 18 18 18 18 18 18 18 18 18 18 18 18 17 17 18 18 18 18 18 18 17 17 17 17 17 17 17 17 17 17 17 16 16 16 16 16
19 19 19 19 19 18 18 18 18 18 18 18 18 18 18 17 17 17 17 17 17 17 17 18 18 18 17 17 17 17 17 17 17 17 17 16 16 16 16 16 16 16 16
19 19 19 19 19 19 18 18 18 18 18 18 17 17 17 17 17 17 17 17 17 17 17 17 17 17 17 17 17 17 17 17 17 16 16 16 16 16 16 16 16 16 16
19 19 19 19 18 18 18 18 18 18 18 17 17 17 17 17 17 17 17 17 17 17 17 17 17 17 17 17 17 17 16 16 16 16 16 16 16 16 16 16 16 15 15
18 18 18 18 18 18 18 18 17 17 17 17 17 17 17 17 17 17 17 17 17 16 16 16 17 17 16 16 16 16 16 16 16 16 16 16 16 16 16 16 15 15 15
18 18 18 18 18 18 17 17 17 17 17 17 17 17 17 17 17 17 16 16 16 16 16 16 16 16 16 16 16 16 16 16 16 16 16 16 16 16 15 15 15 15 15
18 17 17 17 17 17 17 17 17 17 17 16 16 16 16 16 16 16 16 16 16 16 16 16 16 16 16 16 16 16 16 16 16 15 16 16 15 15 15 15 15 15 14
17 17 17 17 17 16 16 16 16 16 16 16 16 16 16 16 16 16 16 16 15 15 15 15 15 15 15 15 15 15 15 15 15 15 15 15 15 15 15 15 14 14 14
17 17 16 16 16 16 16 16 16 16 16 16 16 15 15 15 15 15 15 15 15 15 15 15 15 15 15 15 15 15 15 15 14 15 15 15 14 14 14 14 14 14 14
16 16 16 16 16 16 16 15 15 15 15 15 15 15 15 15 15 15 15 15 15 15 14 14 14 14 15 14 14 14 14 14 14 14 14 14 14 14 14 14 14 14 13
16 16 16 15 15 15 15 15 15 15 15 15 14 14 14 14 14 14 14 14 14 14 14 14 14 14 14 14 14 14 14 14 14 13 13 13 13 14 14 13 13 13 13
16 15 15 15 15 15 15 14 14 14 14 14 14 14 14 14 14 14 14 14 14 14 14 14 13 13 13 14 14 14 14 13 13 13 13 13 13 13 13 13 13 13 13
15 15 15 15 14 14 14 14 14 14 14 14 14 13 13 13 13 13 13 13 13 13 13 13 13 13 13 13 13 13 13 13 13 13 13 12 12 12 12 12 12 12 12
Wind_Speed
3 3 3 3 4 4 3 3 3 3 3 4 4 4 4 6 8 10 11 15 16 16 15 14 15 14 14 13 12 12 11 12 11 11 10 10 9 9 9 9 9 8 7
4 2 2 2 3 4 4 3 3 3 3 2 3 3 3 5 7 9 9 12 15 16 16 15 15 15 14 13 13 12 12 12 12 12 11 10 10 10 9 9 9 8 8
5 3 2 2 3 4 3 2 2 1 1 1 2 3 2 3 5 7 9 10 12 15 16 16 16 15 15 14 13 13 12 12 11 11 11 11 11 11 10 9 9 9 9
5 3 2 2 3 2 1 1 0 1 1 1 2 3 2 2 4 6 8 9 10 10 13 15 16 15 15 15 14 13 13 13 13 12 12 11 11 11 11 10 10 9 9
4 3 2 2 3 1 1 1 0 1 1 1 2 3 2 2 3 5 5 8 10 11 11 13 15 15 15 14 14 14 14 14 13 13 12 12 12 11 11 11 11 10 10
5 3 2 2 1 1 1 1 1 1 1 2 2 3 3 3 2 3 5 5 8 10 11 11 11 13 15 14 14 14 14 14 14 13 13 12 12 12 12 11 11 10 10
5 4 2 2 1 1 2 2 1 1 1 1 1 3 4 3 3 3 3 3 5 7 8 10 10 9 10 13 14 14 14 14 14 14 14 13 13 13 12 12 11 11 11
5 5 4 3 2 1 1 1 1 0 1 0 1 1 3 4 3 2 2 2 3 4 5 7 8 9 9 8 10 12 14 15 15 15 15 14 13 13 13 12 12 12 11
5 4 4 3 3 2 2 2 1 2 2 2 1 3 2 2 3 3 2 2 3 2 3 4 6 8 9 9 9 12 14 14 15 15 15 15 14 13 13 13 12 12 12
4 5 4 3 3 3 2 2 2 2 2 2 1 1 3 4 2 3 3 3 3 2 3 2 3 6 9 9 10 12 13 14 14 14 15 15 15 14 13 12 11 11 11
3 4 4 4 4 3 3 3 3 2 2 2 2 1 1 1 2 2 3 4 3 3 2 2 2 3 5 7 8 10 12 13 13 14 14 14 15 15 14 13 12 11 11
2 3 3 3 3 3 4 4 3 3 2 2 2 1 2 1 2 2 3 3 3 3 2 2 2 3 4 6 7 9 10 10 12 14 14 14 14 14 14 13 13 12 11
2 3 3 3 3 3 4 4 3 2 2 1 2 2 2 2 2 3 2 3 3 3 2 2 3 3 4 5 6 9 10 11 11 11 13 13 14 14 13 13 13 13 12
3 3 2 2 2 2 3 2 2 2 2 2 2 2 2 2 2 2 2 2 2 2 2 4 2 3 3 4 6 9 8 10 10 11 12 14 14 13 13 13 12 12 11
2 2 2 2 2 2 2 2 1 2 1 1 2 2 2 2 1 2 2 2 3 3 3 4 2 3 3 4 5 6 6 8 9 11 12 14 13 13 13 13 13 12 11
2 2 2 2 2 2 2 1 1 1 1 1 1 1 2 2 2 1 1 2 3 4 4 3 3 3 2 3 4 5 7 8 9 10 11 12 12 12 12 12 12 12 11
2 2 2 2 2 2 1 1 1 1 1 1 1 1 2 2 2 2 1 1 1 2 3 4 2 2 1 2 2 4 5 5 6 10 10 10 10 11 10 11 11 12 11
2 2 2 2 2 1 1 1 1 0 0 1 2 1 2 2 2 2 2 2 2 2 3 4 3 2 3 3 2 2 2 3 4 7 8 8 9 10 10 10 11 11 11
1 1 1 1 1 1 1 1 1 1 1 1 2 2 3 2 2 2 2 2 2 2 2 2 3 2 2 1 1 2 1 1 2 3 5 7 7 8 8 9 9 11 11
2 1 1 1 1 1 1 1 1 1 1 1 2 2 2 2 3 3 3 3 2 2 1 1 2 2 2 2 1 2 2 2 2 1 2 3 5 7 8 8 8 9 11
2 1 1 1 1 1 1 1 1 1 1 2 3 3 3 3 3 2 2 2 2 1 2 2 2 2 2 1 2 2 2 2 2 1 1 1 2 3 4 7 8 9 10
1 1 1 1 1 1 2 2 1 1 1 2 3 3 3 2 3 3 4 3 2 2 3 2 2 3 4 3 3 2 1 1 2 2 1 2 1 2 3 4 7 9 10
0 1 1 1 1 2 2 2 2 1 1 2 2 2 3 3 3 3 4 4 4 4 5 4 4 4 4 4 3 2 2 2 3 2 1 2 1 3 3 5 7 9 9
2 2 2 2 2 2 2 2 2 1 1 2 2 2 3 4 3 3 3 3 4 4 4 4 5 5 5 4 4 4 4 3 2 1 2 2 2 2 3 3 6 8 8
2 2 2 2 2 3 2 2 2 1 2 3 3 2 3 4 5 4 2 3 5 6 5 5 5 6 7 6 4 1 1 1 2 2 1 2 2 1 1 2 2 5 7
2 2 1 2 2 2 3 2 2 1 2 3 3 3 5 5 6 4 2 3 5 6 5 5 4 5 4 5 4 3 3 3 2 2 2 2 2 1 1 1 1 2 3
Wind_Direction
189 201 214 215 217 227 231 238 246 249 249 246 242 230 207 199 202 197 203 204 202 202 202 202 203 202 203 204 205 205 206 207 208 210 212 214 214 215 217 220 220 220 220
180 186 204 212 230 235 232 227 224 233 242 237 255 243 227 209 200 199 201 206 206 205 208 208 208 207 207 208 208 209 211 212 212 213 215 215 216 217 219 219 217 218 223
182 184 200 225 240 252 245 240 249 248 261 272 283 272 245 212 198 197 200 205 209 211 212 212 212 211 212 212 212 214 216 216 215 215 215 217 218 219 218 219 218 219 221
188 181 194 238 254 256 238 239 284 322 306 312 296 286 273 237 210 199 200 207 209 213 215 216 215 215 217 218 218 220 220 218 217 215 215 216 217 217 219 218 219 220 221
198 184 207 251 262 241 253 255 173 200 260 297 287 279 278 245 231 218 209 208 211 213 212 218 220 220 221 221 222 223 223 221 219 217 218 220 219 219 221 220 220 223 222
205 192 203 262 280 281 293 274 271 249 224 249 284 301 287 261 243 232 223 211 210 211 212 214 220 226 226 226 224 225 225 223 219 220 222 222 221 223 222 222 223 223 223
207 195 205 222 205 208 245 251 234 280 286 274 10 333 322 301 270 252 234 217 214 217 214 215 217 221 225 229 229 227 227 226 222 221 222 223 223 223 222 222 221 225 227
213 207 197 212 216 218 262 273 212 265 290 196 153 27 339 337 327 289 260 219 218 214 214 214 211 211 215 218 221 226 229 231 228 223 221 223 223 223 223 223 224 227 229
214 207 195 202 220 210 231 249 226 195 251 286 172 159 170 254 307 317 293 257 239 226 229 212 210 217 219 221 224 227 228 230 230 229 224 221 220 220 222 225 226 227 227
210 204 200 198 218 214 219 239 226 211 203 260 278 220 198 186 194 305 316 305 288 258 246 231 212 219 220 218 225 226 226 227 228 228 227 223 220 219 221 224 224 223 225
221 209 202 198 215 222 219 233 233 225 203 208 224 242 242 216 179 197 286 310 319 291 264 225 198 199 208 215 221 225 226 229 228 227 228 227 224 222 222 224 226 228 228
240 228 212 211 215 213 213 219 227 219 216 208 206 201 199 205 213 193 236 270 284 289 282 245 225 206 210 219 223 218 220 227 228 225 225 225 225 225 224 225 228 230 232
242 241 228 219 217 216 215 211 211 223 224 219 222 229 222 225 207 192 204 248 268 284 294 273 245 218 218 216 221 220 220 222 228 231 230 227 227 226 225 226 228 228 229
225 231 225 217 211 211 218 204 213 233 231 231 247 241 237 249 227 210 201 209 275 293 291 269 271 246 231 216 227 220 222 221 224 230 230 229 228 225 224 225 226 225 226
216 217 207 201 205 202 208 199 206 249 256 246 256 251 240 253 245 236 215 196 201 246 269 259 258 258 248 232 233 220 227 229 231 235 232 230 229 226 224 224 222 222 221
215 214 212 206 201 211 213 197 227 254 249 274 259 281 287 283 281 273 246 222 201 199 240 256 246 255 256 254 232 219 232 234 233 234 233 230 228 227 223 222 218 219 219
209 207 211 202 202 213 221 194 222 216 229 279 295 283 293 294 295 297 284 263 233 193 233 270 262 279 265 268 251 229 231 226 233 232 230 229 226 224 224 223 218 217 215
210 196 183 179 196 194 193 200 224 240 213 278 289 294 295 297 300 290 285 279 263 231 216 259 281 282 267 272 257 235 239 234 231 233 225 227 227 224 223 224 223 220 217
177 174 160 175 195 176 191 205 189 193 223 260 267 268 278 286 295 296 290 284 276 273 222 226 261 260 265 304 311 283 275 298 270 246 229 232 230 229 228 229 226 221 215
164 173 181 185 183 169 167 188 162 173 248 275 269 262 265 258 266 281 291 284 278 289 287 258 271 278 275 284 269 268 286 286 276 275 250 238 232 229 230 228 225 219 214
190 183 169 161 169 163 200 207 215 235 252 274 283 277 269 262 258 259 275 265 262 264 273 270 273 286 283 279 261 251 258 277 266 248 231 246 221 224 230 227 223 221 218
212 170 160 198 216 243 232 217 203 250 263 272 288 296 296 310 311 306 301 282 238 235 246 251 262 264 268 256 255 256 247 272 281 265 196 254 219 229 232 227 226 220 219
209 213 220 205 233 257 238 227 219 217 248 267 280 297 306 323 323 313 313 311 294 272 234 221 242 252 254 251 240 252 239 223 238 245 175 266 260 248 251 241 220 214 212
218 236 237 227 221 249 240 244 256 260 271 280 277 274 279 297 302 294 299 307 298 289 268 241 237 250 255 248 229 225 225 233 255 263 163 223 264 258 268 249 215 208 207
227 242 239 229 228 259 254 252 242 264 278 286 286 292 281 284 293 292 289 289 296 295 287 274 263 269 273 272 253 212 224 202 268 273 202 191 236 256 267 254 230 206 208
224 245 259 252 233 253 259 255 229 214 263 284 297 293 279 279 294 298 264 268 280 284 298 311 309 307 299 299 287 219 210 205 230 260 241 189 209 195 279 277 240 223 206
Height
1558 1559 1559 1559 1559 1559 1559 1559 1559 1559 1559 1558 1558 1558 1558 1558 1558 1558 1558 1559 1559 1559 1559 1559 1559 1559 1559 1559 1560 1560 1560 1560 1561 1561 1561 1562 1562 1563 1563 1563 1564 1564 1564
1559 1559 1559 1559 1559 1559 1559 1559 1558 1558 1558 1558 1558 1558 1557 1557 1557 1557 1557 1558 1558 1558 1557 1557 1557 1558 1558 1558 1558 1558 1559 1559 1559 1560 1560 1560 1561 1561 1561 1562 1562 1562 1563
1559 1559 1559 1559 1559 1559 1559 1558 1558 1558 1557 1557 1557 1556 1556 1556 1556 1556 1556 1556 1556 1556 1556 1556 1556 1556 1556 1556 1557 1557 1557 1557 1558 1558 1558 1559 1559 1560 1560 1560 1560 1561 1561
1559 1558 1558 1558 1558 1558 1558 1558 1557 1557 1557 1556 1556 1555 1555 1555 1555 1555 1555 1555 1555 1555 1554 1554 1554 1554 1554 1555 1555 1555 1555 1556 1556 1556 1557 1557 1557 1558 1558 1558 1558 1558 1559
1557 1558 1558 1558 1558 1558 1557 1557 1557 1556 1556 1555 1555 1555 1554 1554 1554 1554 1554 1553 1553 1553 1553 1552 1552 1552 1552 1553 1553 1553 1553 1554 1554 1554 1555 1555 1555 1556 1556 1556 1556 1556 1556
1557 1557 1557 1557 1557 1557 1556 1556 1556 1555 1555 1554 1554 1553 1553 1552 1552 1552 1552 1552 1552 1551 1551 1551 1550 1550 1551 1551 1551 1551 1551 1551 1552 1552 1552 1553 1553 1553 1553 1554 1554 1554 1554
1556 1555 1555 1555 1555 1555 1555 1555 1555 1554 1554 1553 1553 1552 1551 1551 1550 1550 1550 1550 1550 1550 1550 1549 1549 1549 1549 1549 1549 1549 1549 1549 1549 1549 1549 1550 1550 1551 1551 1551 1551 1551 1551
1554 1554 1554 1554 1554 1554 1554 1554 1553 1553 1552 1552 1552 1550 1549 1550 1549 1549 1549 1549 1549 1548 1548 1547 1547 1547 1547 1546 1546 1546 1546 1546 1547 1547 1547 1547 1547 1547 1548 1548 1549 1549 1549
1553 1553 1552 1552 1552 1552 1552 1552 1552 1552 1551 1551 1550 1550 1549 1548 1547 1547 1547 1547 1547 1547 1546 1546 1545 1545 1545 1544 1544 1544 1544 1544 1544 1544 1544 1544 1544 1545 1545 1545 1546 1546 1546
1551 1551 1550 1550 1550 1550 1550 1550 1550 1550 1549 1549 1548 1548 1549 1548 1547 1545 1545 1545 1545 1545 1544 1544 1543 1542 1542 1542 1541 1541 1541 1541 1541 1541 1541 1541 1542 1542 1542 1543 1543 1543 1543
1549 1549 1549 1548 1548 1548 1548 1548 1548 1548 1547 1547 1546 1546 1546 1546 1545 1545 1543 1543 1543 1542 1542 1541 1541 1540 1539 1539 1539 1538 1538 1538 1537 1537 1538 1538 1539 1539 1539 1540 1540 1540 1540
1547 1547 1547 1546 1546 1546 1545 1545 1545 1545 1545 1545 1544 1544 1544 1543 1543 1543 1542 1541 1540 1540 1539 1539 1538 1537 1536 1536 1535 1535 1535 1535 1535 1535 1535 1536 1536 1536 1536 1537 1537 1537 1537
1544 1544 1544 1544 1544 1543 1543 1543 1543 1542 1542 1542 1542 1542 1541 1541 1541 1541 1540 1539 1538 1537 1536 1535 1535 1534 1533 1533 1532 1532 1532 1531 1532 1532 1532 1533 1533 1533 1533 1533 1533 1534 1534
1542 1542 1542 1542 1541 1541 1541 1541 1540 1540 1540 1540 1540 1539 1539 1539 1539 1538 1538 1537 1535 1534 1533 1533 1532 1531 1530 1529 1529 1529 1528 1528 1528 1528 1528 1529 1529 1530 1529 1530 1530 1530 1530
1540 1540 1540 1539 1539 1539 1539 1538 1538 1538 1537 1537 1537 1536 1536 1536 1536 1535 1535 1534 1534 1532 1530 1530 1529 1528 1527 1526 1525 1525 1525 1524 1525 1525 1525 1525 1525 1526 1526 1526 1526 1526 1527
1537 1537 1537 1537 1537 1536 1536 1536 1536 1535 1535 1535 1534 1534 1534 1533 1533 1532 1532 1531 1531 1530 1528 1527 1526 1525 1524 1523 1523 1522 1521 1521 1521 1522 1522 1522 1521 1522 1523 1523 1523 1523 1523
1534 1534 1534 1534 1534 1534 1534 1534 1534 1533 1533 1532 1532 1531 1531 1530 1530 1529 1529 1528 1528 1527 1525 1524 1523 1522 1521 1520 1520 1519 1519 1519 1518 1518 1518 1518 1518 1518 1518 1519 1519 1519 1519
1531 1531 1532 1532 1532 1532 1532 1531 1531 1531 1530 1530 1529 1529 1528 1528 1527 1526 1526 1525 1524 1523 1522 1521 1520 1519 1518 1517 1517 1516 1516 1516 1515 1515 1514 1514 1514 1514 1515 1515 1515 1515 1516
1528 1528 1529 1529 1529 1529 1529 1528 1528 1528 1528 1527 1526 1525 1525 1524 1524 1523 1522 1521 1520 1520 1519 1517 1516 1516 1515 1515 1514 1513 1513 1512 1512 1511 1511 1510 1510 1510 1511 1511 1511 1512 1512
1526 1526 1526 1526 1526 1526 1526 1525 1525 1524 1524 1524 1523 1522 1522 1521 1520 1520 1519 1518 1517 1516 1515 1514 1513 1512 1512 1512 1511 1510 1509 1509 1508 1507 1507 1506 1506 1507 1507 1508 1508 1508 1508
1524 1524 1524 1524 1524 1523 1523 1523 1522 1521 1521 1520 1520 1519 1518 1517 1517 1516 1515 1514 1514 1513 1512 1511 1510 1509 1509 1508 1507 1506 1506 1505 1504 1504 1503 1503 1503 1503 1503 1504 1504 1504 1505
1522 1522 1521 1521 1521 1521 1521 1520 1519 1519 1518 1517 1517 1516 1515 1514 1513 1513 1512 1511 1510 1509 1508 1507 1506 1506 1505 1505 1504 1503 1502 1501 1500 1501 1500 1500 1500 1499 1500 1500 1500 1501 1501
1520 1520 1519 1519 1519 1518 1518 1518 1517 1516 1515 1514 1513 1513 1512 1511 1510 1509 1508 1507 1506 1506 1505 1505 1503 1502 1502 1501 1501 1500 1499 1498 1497 1497 1497 1496 1496 1495 1496 1496 1496 1496 1497
1517 1517 1516 1516 1515 1515 1515 1515 1514 1513 1512 1511 1510 1509 1508 1507 1506 1505 1504 1503 1502 1502 1501 1501 1500 1499 1499 1498 1497 1496 1495 1495 1494 1494 1493 1492 1492 1492 1492 1492 1492 1492 1493
1514 1514 1513 1513 1512 1512 1511 1511 1511 1510 1509 1508 1507 1506 1505 1504 1503 1502 1501 1499 1498 1498 1497 1497 1496 1495 1495 1494 1493 1493 1491 1490 1489 1489 1489 1489 1488 1488 1488 1488 1488 1488 1489
1511 1511 1510 1509 1509 1508 1508 1507 1507 1506 1505 1504 1504 1503 1501 1500 1499 1498 1497 1496 1494 1493 1493 1492 1492 1491 1490 1490 1489 1489 1488 1487 1486 1485 1485 1485 1484 1484 1484 1484 1484 1485 1485